Time,TemperatureF,DewpointF,PressureIn,WindDirection,WindDirectionDegrees,WindSpeedMPH,WindSpeedGustMPH,Humidity,HourlyPrecipIn,Conditions,Clouds,dailyrainin,SoftwareType,DateUTC
2013-04-06 00:03:00,49.1,40.5,29.83,SE,134,0.0,4.0,72,0.00,,---,0.00,VWS V13.00,2013-04-06 07:03:00,
2013-04-06 00:08:00,49.0,40.4,29.82,SE,130,1.0,4.0,72,0.00,,---,0.00,VWS V13.00,2013-04-06 07:08:00,
2013-04-06 00:13:00,49.0,40.4,29.82,SE,130,0.0,4.0,72,0.00,,---,0.00,VWS V13.00,2013-04-06 07:13:00,
2013-04-06 00:18:00,49.0,40.4,29.83,SE,130,0.0,4.0,72,0.00,,---,0.00,VWS V13.00,2013-04-06 07:18:00,
2013-04-06 00:23:00,49.0,40.7,29.83,SE,130,0.0,4.0,73,0.00,,---,0.00,VWS V13.00,2013-04-06 07:23:00,
2013-04-06 00:28:00,48.9,40.6,29.83,SE,130,1.0,4.0,73,0.00,,---,0.00,VWS V13.00,2013-04-06 07:28:00,
2013-04-06 00:33:00,48.8,40.5,29.83,ESE,120,0.0,3.0,73,0.00,,---,0.00,VWS V13.00,2013-04-06 07:33:00,
2013-04-06 00:38:00,48.7,40.5,29.83,SSW,192,1.0,7.0,73,0.00,,---,0.00,VWS V13.00,2013-04-06 07:38:00,
2013-04-06 00:43:00,48.7,40.5,29.83,SE,146,1.0,7.0,73,0.00,,---,0.00,VWS V13.00,2013-04-06 07:43:00,
2013-04-06 00:48:00,48.7,40.5,29.83,South,180,1.0,7.0,73,0.00,,---,0.00,VWS V13.00,2013-04-06 07:48:00,
2013-04-06 00:53:00,48.7,40.5,29.83,ESE,115,0.0,7.0,73,0.00,,---,0.00,VWS V13.00,2013-04-06 07:53:00,
2013-04-06 00:58:00,48.7,40.5,29.83,ESE,123,3.0,9.0,73,0.00,,---,0.00,VWS V13.00,2013-04-06 07:58:00,
2013-04-06 01:03:00,48.6,40.3,29.81,SE,141,3.0,4.0,73,0.00,,---,0.00,VWS V13.00,2013-04-06 08:03:00,
2013-04-06 01:08:00,48.6,40.3,29.81,ESE,108,2.0,5.0,73,0.00,,---,0.00,VWS V13.00,2013-04-06 08:08:00,
2013-04-06 01:13:00,48.6,40.7,29.81,ESE,116,2.0,5.0,74,0.00,,---,0.00,VWS V13.00,2013-04-06 08:13:00,
2013-04-06 01:18:00,48.5,40.6,29.81,ESE,121,0.0,5.0,74,0.00,,---,0.00,VWS V13.00,2013-04-06 08:18:00,
2013-04-06 01:23:00,48.4,40.5,29.81,ESE,122,3.0,5.0,74,0.00,,---,0.00,VWS V13.00,2013-04-06 08:23:00,
2013-04-06 01:28:00,48.4,40.5,29.81,SSE,164,4.0,7.0,74,0.00,,---,0.00,VWS V13.00,2013-04-06 08:28:00,
2013-04-06 01:33:00,48.3,40.4,29.81,SE,132,5.0,11.0,74,0.00,,---,0.00,VWS V13.00,2013-04-06 08:33:00,
2013-04-06 01:38:00,48.3,40.4,29.81,ESE,115,2.0,11.0,74,0.00,,---,0.00,VWS V13.00,2013-04-06 08:38:00,
2013-04-06 01:43:00,48.3,40.4,29.81,ESE,109,0.0,11.0,74,0.00,,---,0.00,VWS V13.00,2013-04-06 08:43:00,
2013-04-06 01:48:00,48.2,40.7,29.81,SE,141,1.0,11.0,75,0.00,,---,0.00,VWS V13.00,2013-04-06 08:48:00,
2013-04-06 01:53:00,48.2,40.7,29.81,SE,129,0.0,11.0,75,0.00,,---,0.00,VWS V13.00,2013-04-06 08:53:00,
2013-04-06 01:57:00,48.1,40.6,29.81,ESE,117,2.0,11.0,75,0.00,,---,0.00,VWS V13.00,2013-04-06 08:57:00,
2013-04-06 02:03:00,48.0,40.8,29.81,SE,129,4.0,4.0,76,0.00,,---,0.00,VWS V13.00,2013-04-06 09:03:00,
2013-04-06 02:08:00,48.0,41.2,29.80,ESE,109,2.0,5.0,77,0.00,,---,0.00,VWS V13.00,2013-04-06 09:08:00,
2013-04-06 02:13:00,47.9,41.0,29.80,ESE,118,3.0,6.0,77,0.00,,---,0.00,VWS V13.00,2013-04-06 09:13:00,
2013-04-06 02:18:00,47.9,41.4,29.80,ESE,116,3.0,6.0,78,0.00,,---,0.00,VWS V13.00,2013-04-06 09:18:00,
2013-04-06 02:23:00,47.8,41.6,29.80,ESE,120,1.0,7.0,79,0.00,,---,0.00,VWS V13.00,2013-04-06 09:23:00,
2013-04-06 02:28:00,47.8,41.6,29.80,SE,139,1.0,7.0,79,0.00,,---,0.00,VWS V13.00,2013-04-06 09:28:00,
2013-04-06 02:33:00,47.8,41.9,29.80,ESE,121,3.0,7.0,80,0.00,,---,0.00,VWS V13.00,2013-04-06 09:33:00,
2013-04-06 02:38:00,47.7,42.2,29.79,SE,132,2.0,10.0,81,0.00,,---,0.00,VWS V13.00,2013-04-06 09:38:00,
2013-04-06 02:43:00,47.7,42.2,29.79,SE,132,9.0,10.0,81,0.00,,---,0.00,VWS V13.00,2013-04-06 09:43:00,
2013-04-06 02:48:00,47.7,42.5,29.79,ESE,115,2.0,10.0,82,0.00,,---,0.00,VWS V13.00,2013-04-06 09:48:00,
2013-04-06 02:53:00,47.6,42.7,29.79,SE,136,4.0,10.0,83,0.00,,---,0.00,VWS V13.00,2013-04-06 09:53:00,
2013-04-06 02:58:00,47.5,42.6,29.79,ESE,117,2.0,10.0,83,0.00,,---,0.00,VWS V13.00,2013-04-06 09:58:00,
2013-04-06 03:03:00,47.4,42.8,29.79,ESE,123,3.0,8.0,84,0.00,,---,0.00,VWS V13.00,2013-04-06 10:03:00,
2013-04-06 03:08:00,47.3,42.7,29.79,SSE,152,5.0,8.0,84,0.00,,---,0.00,VWS V13.00,2013-04-06 10:08:00,
2013-04-06 03:13:00,47.3,43.0,29.79,SE,133,4.0,8.0,85,0.00,,---,0.00,VWS V13.00,2013-04-06 10:13:00,
2013-04-06 03:18:00,47.2,42.9,29.79,SE,145,2.0,8.0,85,0.00,,---,0.00,VWS V13.00,2013-04-06 10:18:00,
2013-04-06 03:23:00,47.2,42.9,29.79,ESE,119,4.0,8.0,85,0.00,,---,0.00,VWS V13.00,2013-04-06 10:23:00,
2013-04-06 03:28:00,47.1,43.1,29.78,SE,135,5.0,9.0,86,0.00,,---,0.00,VWS V13.00,2013-04-06 10:28:00,
2013-04-06 03:33:00,47.0,43.0,29.78,SSE,148,7.0,8.0,86,0.00,,---,0.00,VWS V13.00,2013-04-06 10:33:00,
2013-04-06 03:38:00,47.0,43.0,29.78,SE,145,5.0,8.0,86,0.00,,---,0.00,VWS V13.00,2013-04-06 10:38:00,
2013-04-06 03:43:00,46.9,42.9,29.78,SE,130,3.0,10.0,86,0.00,,---,0.00,VWS V13.00,2013-04-06 10:43:00,
2013-04-06 03:48:00,46.9,42.9,29.78,East,101,3.0,10.0,86,0.00,,---,0.00,VWS V13.00,2013-04-06 10:48:00,
2013-04-06 03:53:00,46.8,43.1,29.78,ESE,118,3.0,10.0,87,0.00,,---,0.00,VWS V13.00,2013-04-06 10:53:00,
2013-04-06 03:58:00,46.7,43.0,29.78,SSE,148,3.0,10.0,87,0.00,,---,0.00,VWS V13.00,2013-04-06 10:58:00,
2013-04-06 04:03:00,46.7,43.0,29.78,SE,139,4.0,5.0,87,0.00,,---,0.00,VWS V13.00,2013-04-06 11:03:00,
2013-04-06 04:08:00,46.7,43.0,29.78,ESE,110,1.0,6.0,87,0.00,,---,0.00,VWS V13.00,2013-04-06 11:08:00,
2013-04-06 04:13:00,46.6,42.9,29.78,SE,126,2.0,6.0,87,0.00,,---,0.00,VWS V13.00,2013-04-06 11:13:00,
2013-04-06 04:18:00,46.6,43.2,29.78,SE,138,6.0,8.0,88,0.00,,---,0.00,VWS V13.00,2013-04-06 11:18:00,
2013-04-06 04:23:00,46.5,42.8,29.77,ESE,117,1.0,8.0,87,0.00,,---,0.00,VWS V13.00,2013-04-06 11:23:00,
2013-04-06 04:28:00,46.5,43.1,29.77,SE,132,2.0,8.0,88,0.00,,---,0.00,VWS V13.00,2013-04-06 11:28:00,
2013-04-06 04:33:00,46.5,43.1,29.77,ESE,114,1.0,4.0,88,0.00,,---,0.00,VWS V13.00,2013-04-06 11:33:00,
2013-04-06 04:38:00,46.4,43.0,29.77,ESE,113,1.0,5.0,88,0.00,,---,0.00,VWS V13.00,2013-04-06 11:38:00,
2013-04-06 04:43:00,46.4,43.0,29.77,ESE,121,3.0,7.0,88,0.00,,---,0.00,VWS V13.00,2013-04-06 11:43:00,
2013-04-06 04:48:00,46.4,43.0,29.77,SE,130,0.0,7.0,88,0.01,,---,0.01,VWS V13.00,2013-04-06 11:48:00,
2013-04-06 04:53:00,46.3,43.0,29.77,SE,144,0.0,7.0,88,0.01,,---,0.01,VWS V13.00,2013-04-06 11:53:00,
2013-04-06 04:58:00,46.3,43.0,29.77,SE,133,2.0,7.0,88,0.01,,---,0.01,VWS V13.00,2013-04-06 11:58:00,
2013-04-06 05:03:00,46.2,43.1,29.78,SE,128,0.0,7.0,89,0.01,,---,0.01,VWS V13.00,2013-04-06 12:03:00,
2013-04-06 05:08:00,46.2,43.1,29.78,ESE,105,3.0,7.0,89,0.01,,---,0.01,VWS V13.00,2013-04-06 12:08:00,
2013-04-06 05:13:00,46.1,42.8,29.77,ESE,107,0.0,7.0,88,0.01,,---,0.01,VWS V13.00,2013-04-06 12:13:00,
2013-04-06 05:18:00,46.1,43.0,29.77,ESE,106,0.0,7.0,89,0.01,,---,0.01,VWS V13.00,2013-04-06 12:18:00,
2013-04-06 05:23:00,46.1,43.0,29.77,ESE,111,0.0,7.0,89,0.01,,---,0.01,VWS V13.00,2013-04-06 12:23:00,
2013-04-06 05:28:00,46.1,43.0,29.77,ESE,111,0.0,7.0,89,0.01,,---,0.01,VWS V13.00,2013-04-06 12:28:00,
2013-04-06 05:33:00,46.0,43.0,29.77,ESE,111,0.0,0.0,89,0.01,,---,0.01,VWS V13.00,2013-04-06 12:33:00,
2013-04-06 05:38:00,46.0,43.0,29.77,ESE,111,1.0,3.0,89,0.01,,---,0.01,VWS V13.00,2013-04-06 12:38:00,
2013-04-06 05:43:00,46.0,43.0,29.77,ESE,111,0.0,3.0,89,0.01,,---,0.01,VWS V13.00,2013-04-06 12:43:00,
2013-04-06 05:48:00,45.9,42.8,29.77,ESE,111,0.0,3.0,89,0.01,,---,0.02,VWS V13.00,2013-04-06 12:48:00,
2013-04-06 05:53:00,45.9,43.1,29.77,ESE,111,0.0,3.0,90,0.02,,---,0.02,VWS V13.00,2013-04-06 12:53:00,
2013-04-06 05:58:00,45.8,43.0,29.77,ESE,111,0.0,3.0,90,0.02,,---,0.02,VWS V13.00,2013-04-06 12:58:00,
2013-04-06 06:03:00,45.8,43.0,29.77,ESE,111,0.0,2.0,90,0.01,,---,0.02,VWS V13.00,2013-04-06 13:03:00,
2013-04-06 06:08:00,45.7,42.9,29.77,ESE,111,0.0,2.0,90,0.01,,---,0.02,VWS V13.00,2013-04-06 13:08:00,
2013-04-06 06:13:00,45.6,42.8,29.77,SE,130,1.0,5.0,90,0.01,,---,0.02,VWS V13.00,2013-04-06 13:13:00,
2013-04-06 06:18:00,45.6,42.8,29.77,ESE,113,0.0,5.0,90,0.01,,---,0.02,VWS V13.00,2013-04-06 13:18:00,
2013-04-06 06:23:00,45.6,42.8,29.77,ESE,109,1.0,5.0,90,0.01,,---,0.02,VWS V13.00,2013-04-06 13:23:00,
2013-04-06 06:28:00,45.6,42.8,29.77,ESE,109,0.0,5.0,90,0.01,,---,0.02,VWS V13.00,2013-04-06 13:28:00,
2013-04-06 06:33:00,45.6,42.8,29.77,SE,132,2.0,3.0,90,0.01,,---,0.02,VWS V13.00,2013-04-06 13:33:00,
2013-04-06 06:38:00,45.6,42.8,29.77,SE,132,0.0,3.0,90,0.01,,---,0.02,VWS V13.00,2013-04-06 13:38:00,
2013-04-06 06:43:00,45.6,42.8,29.77,SE,132,2.0,3.0,90,0.01,,---,0.02,VWS V13.00,2013-04-06 13:43:00,
2013-04-06 06:48:00,45.6,42.8,29.77,South,187,0.0,5.0,90,0.01,,---,0.02,VWS V13.00,2013-04-06 13:48:00,
2013-04-06 06:53:00,45.6,42.8,29.77,South,170,0.0,5.0,90,0.01,,---,0.02,VWS V13.00,2013-04-06 13:53:00,
2013-04-06 06:58:00,45.7,42.9,29.77,SSE,163,0.0,5.0,90,0.01,,---,0.02,VWS V13.00,2013-04-06 13:58:00,
2013-04-06 07:03:00,45.8,43.0,29.77,SSE,163,3.0,5.0,90,0.00,,---,0.02,VWS V13.00,2013-04-06 14:03:00,
2013-04-06 07:08:00,45.8,42.8,29.77,SSE,163,1.0,5.0,89,0.00,,---,0.02,VWS V13.00,2013-04-06 14:08:00,
2013-04-06 07:13:00,45.8,42.8,29.77,SSE,163,0.0,5.0,89,0.00,,---,0.02,VWS V13.00,2013-04-06 14:13:00,
2013-04-06 07:18:00,45.9,42.8,29.77,SSE,163,0.0,5.0,89,0.00,,---,0.02,VWS V13.00,2013-04-06 14:18:00,
2013-04-06 07:23:00,45.9,42.8,29.77,SSE,163,1.0,5.0,89,0.00,,---,0.02,VWS V13.00,2013-04-06 14:23:00,
2013-04-06 07:28:00,45.9,42.8,29.77,SSE,163,0.0,5.0,89,0.00,,---,0.02,VWS V13.00,2013-04-06 14:28:00,
2013-04-06 07:33:00,46.0,43.0,29.77,South,170,0.0,4.0,89,0.00,,---,0.02,VWS V13.00,2013-04-06 14:33:00,
2013-04-06 07:38:00,46.1,43.0,29.77,SSE,160,3.0,6.0,89,0.00,,---,0.02,VWS V13.00,2013-04-06 14:38:00,
2013-04-06 07:43:00,46.3,43.2,29.77,SE,142,2.0,8.0,89,0.00,,---,0.02,VWS V13.00,2013-04-06 14:43:00,
2013-04-06 07:48:00,46.4,43.0,29.77,SSE,148,2.0,8.0,88,0.00,,---,0.02,VWS V13.00,2013-04-06 14:48:00,
2013-04-06 07:53:00,46.6,43.2,29.77,ESE,121,2.0,8.0,88,0.00,,---,0.02,VWS V13.00,2013-04-06 14:53:00,
2013-04-06 07:58:00,46.7,43.0,29.77,SE,136,2.0,8.0,87,0.00,,---,0.02,VWS V13.00,2013-04-06 14:58:00,
2013-04-06 08:03:00,46.8,43.1,29.78,SE,136,3.0,4.0,87,0.00,,---,0.02,VWS V13.00,2013-04-06 15:03:00,
2013-04-06 08:08:00,46.9,43.2,29.78,SE,136,0.0,4.0,87,0.00,,---,0.02,VWS V13.00,2013-04-06 15:08:00,
2013-04-06 08:13:00,47.0,43.3,29.78,South,174,3.0,5.0,87,0.00,,---,0.02,VWS V13.00,2013-04-06 15:13:00,
2013-04-06 08:18:00,47.1,43.1,29.78,SE,135,4.0,5.0,86,0.00,,---,0.02,VWS V13.00,2013-04-06 15:18:00,
2013-04-06 08:23:00,47.1,43.1,29.78,SSE,167,3.0,11.0,86,0.00,,---,0.02,VWS V13.00,2013-04-06 15:23:00,
2013-04-06 08:28:00,47.3,43.3,29.78,SE,136,7.0,11.0,86,0.00,,---,0.02,VWS V13.00,2013-04-06 15:28:00,
2013-04-06 08:33:00,47.4,42.8,29.79,SSE,157,2.0,10.0,84,0.00,,---,0.02,VWS V13.00,2013-04-06 15:33:00,
2013-04-06 08:38:00,47.6,43.0,29.78,SE,135,4.0,12.0,84,0.00,,---,0.02,VWS V13.00,2013-04-06 15:38:00,
2013-04-06 08:43:00,47.8,42.6,29.78,ESE,113,6.0,16.0,82,0.00,,---,0.02,VWS V13.00,2013-04-06 15:43:00,
2013-04-06 08:48:00,48.2,42.3,29.78,SE,138,10.0,17.0,80,0.00,,---,0.02,VWS V13.00,2013-04-06 15:48:00,
2013-04-06 08:53:00,48.4,42.2,29.78,South,178,3.0,18.0,79,0.00,,---,0.02,VWS V13.00,2013-04-06 15:53:00,
2013-04-06 08:58:00,48.4,41.9,29.78,SSE,168,7.0,18.0,78,0.00,,---,0.02,VWS V13.00,2013-04-06 15:58:00,
2013-04-06 09:03:00,48.4,41.9,29.79,SSE,159,5.0,11.0,78,0.00,,---,0.02,VWS V13.00,2013-04-06 16:03:00,
2013-04-06 09:08:00,48.5,42.3,29.79,SW,235,7.0,12.0,79,0.00,,---,0.02,VWS V13.00,2013-04-06 16:08:00,
2013-04-06 09:13:00,48.5,41.6,29.79,SSW,203,6.0,18.0,77,0.00,,---,0.02,VWS V13.00,2013-04-06 16:13:00,
2013-04-06 09:18:00,48.6,41.7,29.78,SW,217,7.0,18.0,77,0.00,,---,0.02,VWS V13.00,2013-04-06 16:18:00,
2013-04-06 09:23:00,48.6,41.7,29.78,SSE,159,4.0,18.0,77,0.00,,---,0.02,VWS V13.00,2013-04-06 16:23:00,
2013-04-06 09:28:00,48.7,41.5,29.78,South,182,10.0,18.0,76,0.00,,---,0.02,VWS V13.00,2013-04-06 16:28:00,
2013-04-06 09:33:00,48.8,41.9,29.78,SSE,153,9.0,12.0,77,0.00,,---,0.02,VWS V13.00,2013-04-06 16:33:00,
2013-04-06 09:38:00,48.9,42.0,29.78,SE,142,7.0,12.0,77,0.00,,---,0.02,VWS V13.00,2013-04-06 16:38:00,
2013-04-06 09:43:00,49.0,41.8,29.79,South,175,6.0,12.0,76,0.00,,---,0.02,VWS V13.00,2013-04-06 16:43:00,
2013-04-06 09:48:00,49.0,41.8,29.79,South,169,4.0,12.0,76,0.00,,---,0.02,VWS V13.00,2013-04-06 16:48:00,
2013-04-06 09:53:00,49.0,41.4,29.79,SSE,165,3.0,13.0,75,0.00,,---,0.02,VWS V13.00,2013-04-06 16:53:00,
2013-04-06 09:59:00,49.0,41.4,29.79,SSE,161,5.0,15.0,75,0.00,,---,0.02,VWS V13.00,2013-04-06 16:59:00,
2013-04-06 10:04:00,49.0,41.4,29.79,SE,141,4.0,8.0,75,0.00,,---,0.02,VWS V13.00,2013-04-06 17:04:00,
2013-04-06 10:09:00,49.2,42.0,29.79,SSW,199,2.0,11.0,76,0.00,,---,0.02,VWS V13.00,2013-04-06 17:09:00,
2013-04-06 10:14:00,49.8,42.2,29.79,SE,129,1.0,11.0,75,0.00,,---,0.02,VWS V13.00,2013-04-06 17:14:00,
2013-04-06 10:19:00,50.1,41.8,29.79,South,180,8.0,15.0,73,0.00,,---,0.02,VWS V13.00,2013-04-06 17:19:00,
2013-04-06 10:24:00,50.2,41.2,29.80,WSW,238,3.0,15.0,71,0.00,,---,0.02,VWS V13.00,2013-04-06 17:24:00,
2013-04-06 10:29:00,50.2,41.5,29.80,SSW,208,11.0,11.0,72,0.00,,---,0.02,VWS V13.00,2013-04-06 17:29:00,
2013-04-06 10:34:00,50.7,42.0,29.79,SSW,198,17.0,20.0,72,0.00,,---,0.02,VWS V13.00,2013-04-06 17:34:00,
2013-04-06 10:39:00,51.1,42.0,29.79,ESE,110,4.0,20.0,71,0.00,,---,0.02,VWS V13.00,2013-04-06 17:39:00,
2013-04-06 10:44:00,51.9,42.1,29.79,SSE,157,4.0,20.0,69,0.00,,---,0.02,VWS V13.00,2013-04-06 17:44:00,
2013-04-06 10:49:00,52.4,41.8,29.79,West,263,15.0,20.0,67,0.00,,---,0.02,VWS V13.00,2013-04-06 17:49:00,
2013-04-06 10:54:00,52.7,41.7,29.79,South,189,2.0,20.0,66,0.00,,---,0.02,VWS V13.00,2013-04-06 17:54:00,
2013-04-06 10:59:00,52.8,40.6,29.79,South,183,9.0,10.0,63,0.00,,---,0.02,VWS V13.00,2013-04-06 17:59:00,
2013-04-06 11:04:00,52.9,39.8,29.79,South,182,6.0,21.0,61,0.00,,---,0.02,VWS V13.00,2013-04-06 18:04:00,
2013-04-06 11:10:00,53.0,40.3,29.79,SSE,167,2.0,21.0,62,0.00,,---,0.02,VWS V13.00,2013-04-06 18:10:00,
2013-04-06 11:15:00,53.5,39.5,29.79,South,187,6.0,21.0,59,0.00,,---,0.02,VWS V13.00,2013-04-06 18:15:00,
2013-04-06 11:20:00,54.0,40.9,29.79,SSE,167,7.0,21.0,61,0.00,,---,0.02,VWS V13.00,2013-04-06 18:20:00,
2013-04-06 11:25:00,54.2,39.8,29.79,SSE,152,8.0,21.0,58,0.00,,---,0.02,VWS V13.00,2013-04-06 18:25:00,
2013-04-06 11:30:00,54.5,40.0,29.79,South,175,10.0,15.0,58,0.00,,---,0.02,VWS V13.00,2013-04-06 18:30:00,
2013-04-06 11:35:00,54.7,39.3,29.79,SSE,148,13.0,22.0,56,0.00,,---,0.02,VWS V13.00,2013-04-06 18:35:00,
2013-04-06 11:40:00,54.4,38.1,29.79,East,94,6.0,26.0,54,0.00,,---,0.02,VWS V13.00,2013-04-06 18:40:00,
2013-04-06 11:45:00,54.6,38.8,29.79,SSW,200,10.0,26.0,55,0.00,,---,0.02,VWS V13.00,2013-04-06 18:45:00,
2013-04-06 11:50:00,54.9,38.6,29.79,ESE,107,15.0,26.0,54,0.00,,---,0.02,VWS V13.00,2013-04-06 18:50:00,
2013-04-06 11:55:00,55.3,39.9,29.79,SSW,205,11.0,26.0,56,0.00,,---,0.02,VWS V13.00,2013-04-06 18:55:00,
2013-04-06 12:00:00,56.0,40.1,29.79,SSW,205,12.0,16.0,55,0.00,,---,0.02,VWS V13.00,2013-04-06 19:00:00,
2013-04-06 12:05:00,56.0,38.6,29.80,West,262,6.0,19.0,52,0.00,,---,0.02,VWS V13.00,2013-04-06 19:05:00,
2013-04-06 12:10:00,55.1,38.8,29.80,South,175,10.0,24.0,54,0.00,,---,0.02,VWS V13.00,2013-04-06 19:10:00,
2013-04-06 12:15:00,54.5,38.2,29.80,SSW,196,6.0,24.0,54,0.00,,---,0.02,VWS V13.00,2013-04-06 19:15:00,
2013-04-06 12:20:00,53.9,39.0,29.80,South,184,3.0,24.0,57,0.00,,---,0.02,VWS V13.00,2013-04-06 19:20:00,
2013-04-06 12:25:00,53.3,38.5,29.81,South,188,4.0,24.0,57,0.00,,---,0.02,VWS V13.00,2013-04-06 19:25:00,
2013-04-06 12:30:00,52.9,38.5,29.80,South,172,4.0,11.0,58,0.00,,---,0.02,VWS V13.00,2013-04-06 19:30:00,
2013-04-06 12:35:00,52.7,37.9,29.80,SSE,159,6.0,13.0,57,0.00,,---,0.02,VWS V13.00,2013-04-06 19:35:00,
2013-04-06 12:40:00,52.5,38.2,29.80,SSE,167,11.0,19.0,58,0.00,,---,0.02,VWS V13.00,2013-04-06 19:40:00,
2013-04-06 12:46:00,52.3,37.5,29.81,South,179,11.0,19.0,57,0.00,,---,0.02,VWS V13.00,2013-04-06 19:46:00,
2013-04-06 12:51:00,52.3,38.0,29.81,South,184,4.0,19.0,58,0.00,,---,0.02,VWS V13.00,2013-04-06 19:51:00,
2013-04-06 12:56:00,52.7,37.5,29.80,SE,137,4.0,19.0,56,0.00,,---,0.02,VWS V13.00,2013-04-06 19:56:00,
2013-04-06 13:01:00,53.0,37.7,29.81,South,184,6.0,13.0,56,0.00,,---,0.02,VWS V13.00,2013-04-06 20:01:00,
2013-04-06 13:06:00,54.4,37.2,29.80,SSW,198,19.0,20.0,52,0.00,,---,0.02,VWS V13.00,2013-04-06 20:06:00,
2013-04-06 13:11:00,55.9,37.0,29.79,ESE,118,14.0,22.0,49,0.00,,---,0.02,VWS V13.00,2013-04-06 20:11:00,
2013-04-06 13:16:00,56.2,35.7,29.79,SSE,155,10.0,23.0,46,0.00,,---,0.02,VWS V13.00,2013-04-06 20:16:00,
2013-04-06 13:21:00,55.9,37.0,29.80,SSE,165,5.0,23.0,49,0.00,,---,0.02,VWS V13.00,2013-04-06 20:21:00,
2013-04-06 13:26:00,55.9,36.5,29.79,WSW,250,13.0,23.0,48,0.00,,---,0.02,VWS V13.00,2013-04-06 20:26:00,
2013-04-06 13:31:00,55.8,37.5,29.79,SE,136,11.0,14.0,50,0.00,,---,0.02,VWS V13.00,2013-04-06 20:31:00,
2013-04-06 13:36:00,56.6,36.6,29.79,SW,228,9.0,14.0,47,0.00,,---,0.02,VWS V13.00,2013-04-06 20:36:00,
2013-04-06 13:41:00,57.0,35.9,29.79,SSW,211,4.0,21.0,45,0.00,,---,0.02,VWS V13.00,2013-04-06 20:41:00,
2013-04-06 13:46:00,57.2,35.5,29.79,SSW,211,14.0,21.0,44,0.00,,---,0.02,VWS V13.00,2013-04-06 20:46:00,
2013-04-06 13:51:00,57.1,36.0,29.79,South,187,4.0,23.0,45,0.00,,---,0.02,VWS V13.00,2013-04-06 20:51:00,
2013-04-06 13:56:00,57.0,35.3,29.79,South,169,18.0,23.0,44,0.00,,---,0.02,VWS V13.00,2013-04-06 20:56:00,
2013-04-06 14:01:00,56.5,35.4,29.79,SSW,199,12.0,20.0,45,0.00,,---,0.02,VWS V13.00,2013-04-06 21:01:00,
2013-04-06 14:06:00,56.3,35.2,29.79,SE,145,13.0,20.0,45,0.00,,---,0.02,VWS V13.00,2013-04-06 21:06:00,
2013-04-06 14:11:00,56.4,34.2,29.79,South,169,11.0,25.0,43,0.00,,---,0.02,VWS V13.00,2013-04-06 21:11:00,
2013-04-06 14:16:00,56.8,34.6,29.79,SSE,164,10.0,25.0,43,0.00,,---,0.02,VWS V13.00,2013-04-06 21:16:00,
2013-04-06 14:21:00,56.8,35.1,29.78,South,180,7.0,25.0,44,0.00,,---,0.02,VWS V13.00,2013-04-06 21:21:00,
2013-04-06 14:26:00,56.5,34.3,29.78,SSW,200,17.0,25.0,43,0.00,,---,0.02,VWS V13.00,2013-04-06 21:26:00,
2013-04-06 14:31:00,56.1,34.5,29.78,SSW,194,14.0,14.0,44,0.00,,---,0.02,VWS V13.00,2013-04-06 21:31:00,
2013-04-06 14:36:00,55.6,35.2,29.79,South,172,7.0,19.0,46,0.00,,---,0.02,VWS V13.00,2013-04-06 21:36:00,
2013-04-06 14:41:00,55.2,33.7,29.80,SW,227,12.0,22.0,44,0.00,,---,0.02,VWS V13.00,2013-04-06 21:41:00,
2013-04-06 14:46:00,54.6,34.8,29.80,SW,233,2.0,22.0,47,0.00,,---,0.02,VWS V13.00,2013-04-06 21:46:00,
2013-04-06 14:51:00,54.1,33.8,29.80,SSW,199,5.0,22.0,46,0.00,,---,0.02,VWS V13.00,2013-04-06 21:51:00,
2013-04-06 14:57:00,54.0,34.8,29.80,SSE,163,11.0,22.0,48,0.00,,---,0.02,VWS V13.00,2013-04-06 21:57:00,
2013-04-06 15:02:00,54.6,33.7,29.79,SSW,195,6.0,20.0,45,0.00,,---,0.02,VWS V13.00,2013-04-06 22:02:00,
2013-04-06 15:07:00,54.8,33.3,29.79,West,280,6.0,20.0,44,0.00,,---,0.02,VWS V13.00,2013-04-06 22:07:00,
2013-04-06 15:12:00,54.8,32.8,29.79,SE,146,3.0,20.0,43,0.00,,---,0.02,VWS V13.00,2013-04-06 22:12:00,
2013-04-06 15:17:00,54.6,33.7,29.80,SW,226,5.0,25.0,45,0.00,,---,0.02,VWS V13.00,2013-04-06 22:17:00,
2013-04-06 15:22:00,54.2,36.5,29.82,SW,215,9.0,25.0,51,0.00,,---,0.02,VWS V13.00,2013-04-06 22:22:00,
2013-04-06 15:27:00,52.8,36.2,29.81,SW,219,3.0,25.0,53,0.00,,---,0.02,VWS V13.00,2013-04-06 22:27:00,
2013-04-06 15:32:00,51.9,36.7,29.81,SSE,156,12.0,20.0,56,0.00,,---,0.02,VWS V13.00,2013-04-06 22:32:00,
2013-04-06 15:37:00,51.1,37.3,29.81,SSE,148,16.0,24.0,59,0.00,,---,0.02,VWS V13.00,2013-04-06 22:37:00,
2013-04-06 15:42:00,50.2,36.4,29.82,SE,141,6.0,24.0,59,0.00,,---,0.02,VWS V13.00,2013-04-06 22:42:00,
2013-04-06 15:47:00,50.0,36.7,29.82,South,175,7.0,24.0,60,0.00,,---,0.02,VWS V13.00,2013-04-06 22:47:00,
2013-04-06 15:52:00,50.1,36.8,29.82,SE,138,6.0,24.0,60,0.00,,---,0.02,VWS V13.00,2013-04-06 22:52:00,
2013-04-06 15:57:00,50.3,37.0,29.82,South,184,5.0,24.0,60,0.00,,---,0.02,VWS V13.00,2013-04-06 22:57:00,
2013-04-06 16:02:00,50.6,35.0,29.82,SSE,147,10.0,20.0,55,0.00,,---,0.02,VWS V13.00,2013-04-06 23:02:00,
2013-04-06 16:07:00,50.4,36.2,29.81,SE,142,10.0,20.0,58,0.00,,---,0.02,VWS V13.00,2013-04-06 23:07:00,
2013-04-06 16:13:00,50.4,36.6,29.81,South,181,1.0,20.0,59,0.00,,---,0.02,VWS V13.00,2013-04-06 23:13:00,
2013-04-06 16:18:00,50.4,36.6,29.82,South,171,4.0,20.0,59,0.00,,---,0.02,VWS V13.00,2013-04-06 23:18:00,
2013-04-06 16:23:00,50.4,36.2,29.82,South,173,3.0,20.0,58,0.00,,---,0.02,VWS V13.00,2013-04-06 23:23:00,
2013-04-06 16:28:00,50.3,37.4,29.82,SW,226,4.0,24.0,61,0.00,,---,0.02,VWS V13.00,2013-04-06 23:28:00,
2013-04-06 16:33:00,50.0,37.5,29.82,SSW,211,8.0,14.0,62,0.00,,---,0.02,VWS V13.00,2013-04-06 23:33:00,
2013-04-06 16:38:00,49.7,37.2,29.82,SSW,209,4.0,16.0,62,0.00,,---,0.02,VWS V13.00,2013-04-06 23:38:00,
2013-04-06 16:43:00,49.5,35.8,29.83,WSW,237,5.0,17.0,59,0.00,,---,0.02,VWS V13.00,2013-04-06 23:43:00,
2013-04-06 16:48:00,49.3,34.7,29.83,WNW,283,5.0,17.0,57,0.00,,---,0.02,VWS V13.00,2013-04-06 23:48:00,
2013-04-06 16:53:00,49.2,35.5,29.83,WSW,242,1.0,17.0,59,0.00,,---,0.02,VWS V13.00,2013-04-06 23:53:00,
2013-04-06 16:58:00,49.0,35.7,29.82,WSW,241,1.0,17.0,60,0.00,,---,0.02,VWS V13.00,2013-04-06 23:58:00,
2013-04-06 17:03:00,48.9,36.5,29.82,WSW,253,2.0,6.0,62,0.00,,---,0.02,VWS V13.00,2013-04-07 00:03:00,
2013-04-06 17:08:00,48.9,36.1,29.83,SW,230,4.0,6.0,61,0.00,,---,0.02,VWS V13.00,2013-04-07 00:08:00,
2013-04-06 17:13:00,48.9,36.9,29.83,South,188,2.0,6.0,63,0.00,,---,0.02,VWS V13.00,2013-04-07 00:13:00,
2013-04-06 17:18:00,48.9,37.7,29.83,South,188,0.0,6.0,65,0.01,,---,0.03,VWS V13.00,2013-04-07 00:18:00,
2013-04-06 17:23:00,49.0,37.8,29.83,South,188,4.0,6.0,65,0.01,,---,0.03,VWS V13.00,2013-04-07 00:23:00,
2013-04-06 17:28:00,49.1,37.9,29.82,South,188,2.0,6.0,65,0.01,,---,0.03,VWS V13.00,2013-04-07 00:28:00,
2013-04-06 17:33:00,49.2,38.3,29.82,South,187,1.0,2.0,66,0.01,,---,0.03,VWS V13.00,2013-04-07 00:33:00,
2013-04-06 17:38:00,49.2,39.8,29.83,South,188,1.0,4.0,70,0.02,,---,0.04,VWS V13.00,2013-04-07 00:38:00,
2013-04-06 17:43:00,49.1,40.5,29.83,South,187,2.0,4.0,72,0.02,,---,0.04,VWS V13.00,2013-04-07 00:43:00,
2013-04-06 17:48:00,48.8,39.5,29.83,SSW,192,2.0,6.0,70,0.02,,---,0.04,VWS V13.00,2013-04-07 00:48:00,
2013-04-06 17:53:00,48.6,39.3,29.83,SW,219,4.0,6.0,70,0.02,,---,0.04,VWS V13.00,2013-04-07 00:53:00,
2013-04-06 17:58:00,48.4,39.4,29.83,South,184,3.0,9.0,71,0.02,,---,0.04,VWS V13.00,2013-04-07 00:58:00,
2013-04-06 18:03:00,48.3,39.3,29.82,WSW,254,9.0,13.0,71,0.02,,---,0.04,VWS V13.00,2013-04-07 01:03:00,
2013-04-06 18:08:00,48.1,38.0,29.82,WSW,246,9.0,17.0,68,0.02,,---,0.04,VWS V13.00,2013-04-07 01:08:00,
2013-04-06 18:13:00,48.0,38.7,29.83,South,176,7.0,17.0,70,0.04,,---,0.06,VWS V13.00,2013-04-07 01:13:00,
2013-04-06 18:18:00,47.6,39.0,29.84,South,184,6.0,22.0,72,0.04,,---,0.06,VWS V13.00,2013-04-07 01:18:00,
2013-04-06 18:23:00,47.1,39.2,29.84,South,186,5.0,22.0,74,0.04,,---,0.07,VWS V13.00,2013-04-07 01:23:00,
2013-04-06 18:28:00,46.7,38.9,29.84,SSW,211,12.0,22.0,74,0.05,,---,0.07,VWS V13.00,2013-04-07 01:28:00,
2013-04-06 18:33:00,46.5,38.7,29.84,SW,223,4.0,17.0,74,0.04,,---,0.07,VWS V13.00,2013-04-07 01:33:00,
2013-04-06 18:38:00,46.2,38.0,29.83,West,263,6.0,17.0,73,0.04,,---,0.07,VWS V13.00,2013-04-07 01:38:00,
2013-04-06 18:43:00,46.1,38.3,29.83,WNW,285,2.0,17.0,74,0.04,,---,0.07,VWS V13.00,2013-04-07 01:43:00,
2013-04-06 18:48:00,46.1,38.6,29.83,West,264,2.0,17.0,75,0.04,,---,0.07,VWS V13.00,2013-04-07 01:48:00,
2013-04-06 18:53:00,46.1,38.6,29.83,WSW,253,0.0,17.0,75,0.04,,---,0.07,VWS V13.00,2013-04-07 01:53:00,
2013-04-06 18:58:00,46.1,38.6,29.83,SSW,209,3.0,17.0,75,0.04,,---,0.07,VWS V13.00,2013-04-07 01:58:00,
2013-04-06 19:03:00,46.0,37.8,29.83,South,177,0.0,6.0,73,0.03,,---,0.07,VWS V13.00,2013-04-07 02:03:00,
2013-04-06 19:08:00,46.0,37.5,29.83,SSE,168,2.0,6.0,72,0.03,,---,0.07,VWS V13.00,2013-04-07 02:08:00,
2013-04-06 19:13:00,46.1,37.6,29.83,SSE,168,0.0,6.0,72,0.03,,---,0.07,VWS V13.00,2013-04-07 02:13:00,
2013-04-06 19:18:00,46.1,37.9,29.83,SSE,168,0.0,6.0,73,0.03,,---,0.07,VWS V13.00,2013-04-07 02:18:00,
2013-04-06 19:23:00,46.1,38.3,29.84,SSE,168,1.0,6.0,74,0.03,,---,0.07,VWS V13.00,2013-04-07 02:23:00,
2013-04-06 19:28:00,46.1,37.9,29.83,South,190,0.0,10.0,73,0.03,,---,0.07,VWS V13.00,2013-04-07 02:28:00,
2013-04-06 19:33:00,46.1,37.9,29.83,South,190,1.0,2.0,73,0.00,,---,0.07,VWS V13.00,2013-04-07 02:33:00,
2013-04-06 19:38:00,46.0,38.5,29.83,South,190,0.0,3.0,75,0.00,,---,0.07,VWS V13.00,2013-04-07 02:38:00,
2013-04-06 19:43:00,46.0,38.9,29.83,South,190,0.0,3.0,76,0.00,,---,0.07,VWS V13.00,2013-04-07 02:43:00,
2013-04-06 19:48:00,45.9,39.1,29.83,South,190,0.0,3.0,77,0.00,,---,0.07,VWS V13.00,2013-04-07 02:48:00,
2013-04-06 19:53:00,45.8,39.0,29.83,South,190,0.0,3.0,77,0.00,,---,0.07,VWS V13.00,2013-04-07 02:53:00,
2013-04-06 19:58:00,45.5,39.0,29.83,South,190,0.0,3.0,78,0.00,,---,0.07,VWS V13.00,2013-04-07 02:58:00,
2013-04-06 20:03:00,45.4,39.0,29.84,South,190,0.0,0.0,78,0.00,,---,0.07,VWS V13.00,2013-04-07 03:03:00,
2013-04-06 20:08:00,45.3,38.9,29.84,South,190,0.0,0.0,78,0.00,,---,0.07,VWS V13.00,2013-04-07 03:08:00,
2013-04-06 20:13:00,45.1,39.0,29.84,South,190,0.0,1.0,79,0.00,,---,0.07,VWS V13.00,2013-04-07 03:13:00,
2013-04-06 20:18:00,45.0,38.9,29.84,South,190,0.0,2.0,79,0.00,,---,0.07,VWS V13.00,2013-04-07 03:18:00,
2013-04-06 20:23:00,44.9,39.1,29.84,South,190,0.0,2.0,80,0.00,,---,0.07,VWS V13.00,2013-04-07 03:23:00,
2013-04-06 20:28:00,44.7,38.9,29.84,South,190,2.0,2.0,80,0.00,,---,0.07,VWS V13.00,2013-04-07 03:28:00,
2013-04-06 20:33:00,44.7,38.9,29.83,South,190,0.0,2.0,80,0.00,,---,0.07,VWS V13.00,2013-04-07 03:33:00,
2013-04-06 20:38:00,44.6,38.8,29.84,SE,125,3.0,4.0,80,0.00,,---,0.07,VWS V13.00,2013-04-07 03:38:00,
2013-04-06 20:43:00,44.7,38.3,29.84,ESE,121,2.0,6.0,78,0.00,,---,0.07,VWS V13.00,2013-04-07 03:43:00,
2013-04-06 20:48:00,44.8,38.4,29.83,ESE,121,0.0,6.0,78,0.00,,---,0.07,VWS V13.00,2013-04-07 03:48:00,
2013-04-06 20:53:00,44.9,38.5,29.83,ESE,121,2.0,6.0,78,0.00,,---,0.07,VWS V13.00,2013-04-07 03:53:00,
2013-04-06 20:58:00,45.0,38.9,29.83,ESE,121,0.0,6.0,79,0.00,,---,0.07,VWS V13.00,2013-04-07 03:58:00,
2013-04-06 21:00:00,45.0,38.9,29.83,ESE,121,1.0,2.0,79,0.00,,---,0.07,VWS V13.00,2013-04-07 04:00:00,
2013-04-06 21:01:00,45.0,38.9,29.83,ESE,121,0.0,2.0,79,0.00,,---,0.07,VWS V13.00,2013-04-07 04:01:00,
2013-04-06 21:06:00,45.0,38.9,29.83,ESE,121,1.0,2.0,79,0.00,,---,0.07,VWS V13.00,2013-04-07 04:06:00,
2013-04-06 21:11:00,45.0,39.2,29.83,ESE,121,0.0,2.0,80,0.00,,---,0.07,VWS V13.00,2013-04-07 04:11:00,
2013-04-06 21:16:00,45.0,39.2,29.83,ESE,121,0.0,2.0,80,0.00,,---,0.07,VWS V13.00,2013-04-07 04:16:00,
2013-04-06 21:21:00,45.0,39.2,29.83,ESE,121,0.0,3.0,80,0.00,,---,0.07,VWS V13.00,2013-04-07 04:21:00,
2013-04-06 21:26:00,44.9,39.1,29.83,ESE,121,0.0,3.0,80,0.00,,---,0.07,VWS V13.00,2013-04-07 04:26:00,
2013-04-06 21:31:00,44.8,38.7,29.82,ESE,121,2.0,3.0,79,0.00,,---,0.07,VWS V13.00,2013-04-07 04:31:00,
2013-04-06 21:36:00,44.7,38.6,29.82,ESE,121,0.0,3.0,79,0.00,,---,0.07,VWS V13.00,2013-04-07 04:36:00,
2013-04-06 21:41:00,44.7,38.6,29.82,ESE,121,0.0,3.0,79,0.00,,---,0.07,VWS V13.00,2013-04-07 04:41:00,
2013-04-06 21:47:00,44.6,38.8,29.82,ESE,121,0.0,3.0,80,0.00,,---,0.07,VWS V13.00,2013-04-07 04:47:00,
2013-04-06 21:52:00,44.5,38.4,29.82,ESE,121,0.0,3.0,79,0.00,,---,0.07,VWS V13.00,2013-04-07 04:52:00,
2013-04-06 21:57:00,44.3,38.5,29.83,ESE,121,0.0,3.0,80,0.00,,---,0.07,VWS V13.00,2013-04-07 04:57:00,
2013-04-06 22:02:00,44.1,38.3,29.82,ESE,121,0.0,1.0,80,0.00,,---,0.07,VWS V13.00,2013-04-07 05:02:00,
2013-04-06 22:07:00,43.8,37.7,29.82,ESE,121,2.0,3.0,79,0.00,,---,0.07,VWS V13.00,2013-04-07 05:07:00,
2013-04-06 22:12:00,43.7,37.6,29.82,ESE,121,1.0,3.0,79,0.00,,---,0.07,VWS V13.00,2013-04-07 05:12:00,
2013-04-06 22:17:00,43.7,37.3,29.81,SSE,149,2.0,5.0,78,0.00,,---,0.07,VWS V13.00,2013-04-07 05:17:00,
2013-04-06 22:22:00,43.7,37.3,29.81,SSE,149,2.0,5.0,78,0.00,,---,0.07,VWS V13.00,2013-04-07 05:22:00,
2013-04-06 22:27:00,43.7,37.0,29.81,SSE,149,3.0,5.0,77,0.00,,---,0.07,VWS V13.00,2013-04-07 05:27:00,
2013-04-06 22:32:00,43.8,37.1,29.81,South,169,1.0,5.0,77,0.00,,---,0.07,VWS V13.00,2013-04-07 05:32:00,
2013-04-06 22:37:00,43.9,36.8,29.81,SE,131,3.0,5.0,76,0.00,,---,0.07,VWS V13.00,2013-04-07 05:37:00,
2013-04-06 22:42:00,43.9,36.5,29.80,ESE,122,3.0,5.0,75,0.00,,---,0.07,VWS V13.00,2013-04-07 05:42:00,
2013-04-06 22:47:00,44.0,36.3,29.80,SE,138,1.0,5.0,74,0.00,,---,0.07,VWS V13.00,2013-04-07 05:47:00,
2013-04-06 22:52:00,44.2,36.1,29.80,SE,134,0.0,5.0,73,0.00,,---,0.07,VWS V13.00,2013-04-07 05:52:00,
2013-04-06 22:57:00,44.2,36.1,29.81,SE,135,4.0,5.0,73,0.00,,---,0.07,VWS V13.00,2013-04-07 05:57:00,
2013-04-06 23:02:00,44.2,36.1,29.80,SE,135,1.0,3.0,73,0.00,,---,0.07,VWS V13.00,2013-04-07 06:02:00,
2013-04-06 23:07:00,44.3,36.2,29.80,ESE,123,4.0,5.0,73,0.00,,---,0.07,VWS V13.00,2013-04-07 06:07:00,
2013-04-06 23:12:00,44.3,36.2,29.80,SSE,157,3.0,6.0,73,0.00,,---,0.07,VWS V13.00,2013-04-07 06:12:00,
2013-04-06 23:17:00,44.3,36.2,29.79,SSE,156,2.0,6.0,73,0.00,,---,0.07,VWS V13.00,2013-04-07 06:17:00,
2013-04-06 23:22:00,44.3,35.9,29.79,SSE,158,0.0,6.0,72,0.00,,---,0.07,VWS V13.00,2013-04-07 06:22:00,
2013-04-06 23:27:00,44.4,36.0,29.79,SE,136,1.0,6.0,72,0.00,,---,0.07,VWS V13.00,2013-04-07 06:27:00,
2013-04-06 23:32:00,44.4,36.0,29.79,SE,136,0.0,4.0,72,0.00,,---,0.07,VWS V13.00,2013-04-07 06:32:00,
2013-04-06 23:37:00,44.3,35.9,29.79,South,173,0.0,4.0,72,0.00,,---,0.07,VWS V13.00,2013-04-07 06:37:00,
2013-04-06 23:42:00,44.3,35.9,29.79,SSE,167,1.0,4.0,72,0.00,,---,0.07,VWS V13.00,2013-04-07 06:42:00,
2013-04-06 23:47:00,44.3,35.9,29.79,SE,133,0.0,4.0,72,0.00,,---,0.07,VWS V13.00,2013-04-07 06:47:00,
2013-04-06 23:52:00,44.3,35.9,29.79,SE,146,0.0,6.0,72,0.00,,---,0.07,VWS V13.00,2013-04-07 06:52:00,
2013-04-06 23:57:00,44.3,35.9,29.79,South,181,0.0,6.0,72,0.00,,---,0.07,VWS V13.00,2013-04-07 06:57:00,